FW6629 Weather Reports


Display with metric or nautical units.
time (UTC)temp
F
wind
direction
speed
MPH
gust
MPH
rain 1hr
in
rain 24hr
in
rain mn
in
humidity
%
barometer
mb
20260902040052 77 122 1.0 2.0 0.00 0.00 0.00 87 1018.6
20260902035527 77 113 1.0 2.0 0.00 0.00 0.00 87 1018.7
20260902035024 77 168 0.0 2.0 0.00 0.00 0.00 87 1018.7
20260902034546 77 136 0.0 2.0 0.00 0.00 0.00 87 1018.7
20260902034029 77 0 0.0 2.0 0.00 0.00 0.00 87 1018.7
20260902033525 77 0 0.0 2.0 0.00 0.00 0.00 87 1018.7
20260902033043 77 136 1.0 1.0 0.00 0.00 0.00 87 1018.7
20260902032525 77 0 0.0 1.0 0.00 0.00 0.00 87 1018.8
20260902032028 77 0 0.0 2.0 0.00 0.00 0.00 87 1018.8
20260902031552 77 136 0.0 2.0 0.00 0.00 0.00 87 1018.8
20260902031025 77 110 1.0 2.0 0.00 0.00 0.00 87 1018.8
20260902030525 77 133 1.0 2.0 0.00 0.00 0.00 87 1018.7
20260902030045 77 0 0.0 2.0 0.00 0.00 0.00 87 1018.8
20260902025525 77 133 0.0 1.0 0.00 0.00 0.00 87 1018.8
20260902025029 77 127 1.0 1.0 0.00 0.00 0.00 87 1018.7
20260902024547 77 102 0.0 1.0 0.00 0.00 0.00 87 1018.6
20260902024023 78 0 0.0 0.0 0.00 0.00 0.00 86 1018.7
20260902023525 78 0 0.0 2.0 0.00 0.00 0.00 86 1018.7
20260902023050 78 0 0.0 2.0 0.00 0.00 0.00 86 1018.7
20260902022527 78 0 0.0 0.0 0.00 0.00 0.00 86 1018.7
20260902022027 78 0 0.0 0.0 0.00 0.00 0.00 85 1018.6
20260902021547 78 0 0.0 2.0 0.00 0.00 0.00 85 1018.5
20260902021024 78 0 0.0 2.0 0.00 0.00 0.00 84 1018.5
20260902020525 79 102 0.0 0.0 0.00 0.00 0.00 84 1018.5
20260902020046 79 0 0.0 2.0 0.00 0.00 0.00 83 1018.5
20260902015529 79 0 0.0 2.0 0.00 0.00 0.00 82 1018.5
20260902015027 79 0 0.0 1.0 0.00 0.00 0.00 82 1018.5
20260902014546 80 0 0.0 1.0 0.00 0.00 0.00 82 1018.3
20260902014029 80 102 1.0 2.0 0.00 0.00 0.00 82 1018.3
20260902013525 80 98 1.0 2.0 0.00 0.00 0.00 82 1018.3
20260902013056 80 98 0.0 2.0 0.00 0.00 0.00 82 1018.1
20260902012524 80 0 0.0 0.0 0.00 0.00 0.00 81 1018.0
20260902012024 80 0 0.0 0.0 0.00 0.00 0.00 81 1017.9
20260902011550 80 0 0.0 0.0 0.00 0.00 0.00 80 1018.0
20260902011024 81 0 0.0 1.0 0.00 0.00 0.00 80 1018.0
20260902010525 81 0 0.0 1.0 0.00 0.00 0.00 79 1018.0
20260902010046 81 0 0.0 1.0 0.00 0.00 0.00 78 1017.9
20260902005524 82 0 0.0 1.0 0.00 0.00 0.00 78 1017.9
20260902005024 82 98 0.0 1.0 0.00 0.00 0.00 77 1017.8
20260902004547 83 0 0.0 0.0 0.00 0.00 0.00 76 1017.8
20260902004024 83 0 0.0 0.0 0.00 0.00 0.00 75 1017.8
20260902003524 84 0 0.0 2.0 0.00 0.00 0.00 73 1017.8
20260902003051 84 0 0.0 2.0 0.00 0.00 0.00 72 1017.8
20260902002524 85 0 0.0 2.0 0.00 0.00 0.00 71 1017.9
20260902002024 85 0 0.0 1.0 0.00 0.00 0.00 71 1017.7
20260902001601 85 0 0.0 0.0 0.00 0.00 0.00 70 1017.8
20260902001024 86 0 0.0 0.0 0.00 0.00 0.00 69 1017.6
20260902000525 87 0 0.0 2.0 0.00 0.00 0.00 68 1017.6
20260902000045 87 0 0.0 2.0 0.00 0.00 0.00 66 1017.7
20260901235525 88 98 0.0 1.0 0.00 0.00 0.00 63 1017.8
20260901235024 88 98 1.0 2.0 0.00 0.00 0.00 61 1017.9
20260901234546 89 98 1.0 2.0 0.00 0.00 0.00 60 1018.0
20260901234025 89 98 1.0 2.0 0.00 0.00 0.00 59 1018.0
20260901233526 89 77 0.0 2.0 0.00 0.00 0.00 59 1018.1
20260901233044 90 96 0.0 2.0 0.00 0.00 0.00 60 1018.1
20260901232526 90 96 1.0 1.0 0.00 0.00 0.00 57 1018.3
20260901232024 91 109 1.0 2.0 0.00 0.00 0.00 55 1018.2
20260901231548 91 110 1.0 3.0 0.00 0.00 0.00 55 1018.2
20260901231026 92 103 1.0 3.0 0.00 0.00 0.00 54 1018.2
20260901230525 92 107 1.0 3.0 0.00 0.00 0.00 53 1018.1
20260901230045 93 98 1.0 3.0 0.00 0.00 0.00 51 1018.1
20260901225524 93 85 2.0 3.0 0.00 0.00 0.00 51 1018.1
20260901225028 94 110 2.0 3.0 0.00 0.00 0.00 50 1018.1
20260901224550 94 115 1.0 5.0 0.00 0.00 0.00 51 1018.0
20260901224028 94 106 1.0 5.0 0.00 0.00 0.00 51 1018.0
20260901223524 94 110 4.0 5.0 0.00 0.00 0.00 50 1018.0
20260901223051 95 121 2.0 4.0 0.00 0.00 0.00 48 1017.9
20260901222525 95 121 1.0 3.0 0.00 0.00 0.00 48 1017.9
20260901222026 94 74 1.0 3.0 0.00 0.00 0.00 47 1017.9
20260901221559 94 116 2.0 3.0 0.00 0.00 0.00 48 1017.9
20260901221025 95 86 1.0 4.0 0.00 0.00 0.00 49 1017.9
20260901220529 95 100 0.0 4.0 0.00 0.00 0.00 49 1017.8
20260901220052 95 68 2.0 5.0 0.00 0.00 0.00 48 1017.8
20260901215524 95 126 3.0 5.0 0.00 0.00 0.00 47 1017.7
20260901215026 95 123 2.0 5.0 0.00 0.00 0.00 47 1017.6
20260901214549 95 101 1.0 7.0 0.00 0.00 0.00 48 1017.6
20260901214025 95 127 2.0 7.0 0.00 0.00 0.00 47 1017.6
20260901213525 95 97 3.0 7.0 0.00 0.00 0.00 47 1017.7
20260901213044 95 79 1.0 6.0 0.00 0.00 0.00 47 1017.8
20260901212528 96 109 2.0 6.0 0.00 0.00 0.00 48 1017.8
20260901212026 95 192 2.0 5.0 0.00 0.00 0.00 47 1017.8
20260901211545 95 100 1.0 3.0 0.00 0.00 0.00 50 1017.8
20260901211025 95 298 1.0 5.0 0.00 0.00 0.00 47 1017.8
20260901210526 95 206 2.0 5.0 0.00 0.00 0.00 48 1017.9
20260901210047 95 77 2.0 9.0 0.00 0.00 0.00 49 1017.9
20260901205527 95 112 3.0 9.0 0.00 0.00 0.00 50 1017.9
20260901205030 95 144 2.0 6.0 0.00 0.00 0.00 48 1018.0
20260901204546 96 82 3.0 6.0 0.00 0.00 0.00 47 1017.9
20260901204025 96 89 2.0 5.0 0.00 0.00 0.00 45 1017.9
20260901203526 96 114 3.0 5.0 0.00 0.00 0.00 47 1018.0
20260901203055 96 102 2.0 5.0 0.00 0.00 0.00 47 1018.2
20260901202525 96 170 3.0 6.0 0.00 0.00 0.00 49 1018.2
20260901202026 95 138 3.0 6.0 0.00 0.00 0.00 48 1018.3
20260901201548 94 136 2.0 6.0 0.00 0.00 0.00 49 1018.4
20260901201031 94 95 2.0 5.0 0.00 0.00 0.00 48 1018.5
20260901200525 95 98 2.0 4.0 0.00 0.00 0.00 49 1018.4
20260901200107 96 107 0.0 3.0 0.00 0.00 0.00 47 1018.6
20260901195525 96 59 1.0 6.0 0.00 0.00 0.00 44 1018.4
20260901195024 96 37 1.0 6.0 0.00 0.00 0.00 47 1018.5
20260901194546 96 94 1.0 5.0 0.00 0.00 0.00 46 1018.6
20260901194028 94 36 0.0 5.0 0.00 0.00 0.00 48 1018.7
20260901193523 94 352 2.0 5.0 0.00 0.00 0.00 46 1018.8
20260901193052 94 39 1.0 3.0 0.00 0.00 0.00 47 1018.9
20260901192524 93 0 0.0 5.0 0.00 0.00 0.00 48 1018.9
20260901192025 94 115 2.0 7.0 0.00 0.00 0.00 49 1018.9
20260901191558 94 82 3.0 7.0 0.00 0.00 0.00 47 1019.0
20260901191027 95 103 3.0 7.0 0.00 0.00 0.00 47 1019.0
20260901190528 96 96 2.0 7.0 0.00 0.00 0.00 47 1019.0
20260901190043 96 58 2.0 7.0 0.00 0.00 0.00 49 1019.1
20260901185525 96 97 3.0 7.0 0.00 0.00 0.00 47 1019.1
20260901185026 95 97 0.0 4.0 0.00 0.00 0.00 48 1019.2
20260901184547 95 13 0.0 4.0 0.00 0.00 0.00 49 1019.2
20260901184024 95 76 3.0 4.0 0.00 0.00 0.00 48 1019.3
20260901183526 95 92 1.0 3.0 0.00 0.00 0.00 49 1019.4
20260901183050 96 70 1.0 3.0 0.00 0.00 0.00 47 1019.5
20260901182525 95 142 1.0 2.0 0.00 0.00 0.00 50 1019.5
20260901182029 93 191 1.0 5.0 0.00 0.00 0.00 51 1019.6
20260901181558 94 275 3.0 10.0 0.00 0.00 0.00 53 1019.6
20260901181024 93 10 3.0 10.0 0.00 0.00 0.00 51 1019.6
20260901180526 94 354 3.0 8.0 0.00 0.00 0.00 51 1019.7
20260901180048 94 337 2.0 5.0 0.00 0.00 0.00 52 1019.7
20260901175529 93 11 0.0 6.0 0.00 0.00 0.00 52 1019.7
20260901175027 92 227 1.0 6.0 0.00 0.00 0.00 56 1019.7
20260901174549 92 74 1.0 5.0 0.00 0.00 0.00 53 1019.8
20260901174025 93 90 1.0 6.0 0.00 0.00 0.00 54 1019.9
20260901173527 93 169 3.0 6.0 0.00 0.00 0.00 54 1020.0
20260901173059 93 175 2.0 6.0 0.00 0.00 0.00 54 1020.1
20260901172524 93 346 1.0 6.0 0.00 0.00 0.00 53 1020.2
20260901172028 93 100 1.0 6.0 0.00 0.00 0.00 55 1020.2
20260901171559 93 108 3.0 6.0 0.00 0.00 0.00 53 1020.3
20260901171025 92 155 2.0 6.0 0.00 0.00 0.00 55 1020.4
20260901170529 92 300 1.0 3.0 0.00 0.00 0.00 56 1020.3
20260901170048 92 352 1.0 6.0 0.00 0.00 0.00 55 1020.5
20260901165527 91 313 1.0 6.0 0.00 0.00 0.00 56 1020.5
20260901165029 91 281 1.0 4.0 0.00 0.00 0.00 55 1020.7
20260901164610 92 329 2.0 4.0 0.00 0.00 0.00 55 1020.7
20260901164024 91 350 2.0 4.0 0.00 0.00 0.00 56 1020.7
20260901163527 91 260 1.0 3.0 0.00 0.00 0.00 56 1020.7
20260901163051 91 292 1.0 4.0 0.00 0.00 0.00 57 1020.7
20260901162523 91 137 1.0 5.0 0.00 0.00 0.00 57 1020.7
20260901162027 90 144 2.0 5.0 0.00 0.00 0.00 57 1020.7
20260901161606 91 127 2.0 5.0 0.00 0.00 0.00 57 1020.9
20260901161024 90 128 1.0 4.0 0.00 0.00 0.00 59 1021.0
20260901160529 89 20 0.0 4.0 0.00 0.00 0.00 60 1021.1
20260901160047 89 98 2.0 6.0 0.00 0.00 0.00 60 1021.1
20260901155524 89 65 1.0 6.0 0.00 0.00 0.00 62 1021.1
20260901155024 89 119 2.0 6.0 0.00 0.00 0.00 60 1021.1
20260901154555 89 154 1.0 3.0 0.00 0.00 0.00 62 1021.1
20260901154024 88 100 1.0 3.0 0.00 0.00 0.00 65 1021.1
20260901153527 87 259 0.0 2.0 0.00 0.00 0.00 65 1021.1
20260901153055 87 300 1.0 3.0 0.00 0.00 0.00 67 1021.2
20260901152524 87 298 1.0 3.0 0.00 0.00 0.00 67 1021.2
20260901152025 87 59 1.0 5.0 0.00 0.00 0.00 68 1021.3
20260901151547 87 0 2.0 5.0 0.00 0.00 0.00 69 1021.4
20260901151030 86 118 0.0 4.0 0.00 0.00 0.00 70 1021.3
20260901150528 85 118 1.0 4.0 0.00 0.00 0.00 71 1021.4
20260901150046 85 91 1.0 4.0 0.00 0.00 0.00 72 1021.5
20260901145526 85 162 1.0 3.0 0.00 0.00 0.00 72 1021.5
20260901145028 84 0 0.0 2.0 0.00 0.00 0.00 74 1021.5
20260901144550 83 59 1.0 2.0 0.00 0.00 0.00 76 1021.6
20260901144026 83 60 0.0 2.0 0.00 0.00 0.00 75 1021.5
20260901143525 83 344 0.0 2.0 0.00 0.00 0.00 75 1021.5
20260901143049 82 0 0.0 3.0 0.00 0.00 0.00 76 1021.5
20260901142525 82 65 0.0 3.0 0.00 0.00 0.00 77 1021.5
20260901142026 81 307 0.0 2.0 0.00 0.00 0.00 78 1021.5
20260901141550 80 348 0.0 2.0 0.00 0.00 0.00 80 1021.5
20260901141024 79 351 1.0 2.0 0.00 0.00 0.00 84 1021.4
20260901140525 78 129 0.0 3.0 0.00 0.00 0.00 84 1021.3
20260901140047 77 68 0.0 3.0 0.00 0.00 0.00 85 1021.4
20260901135525 77 348 1.0 3.0 0.00 0.00 0.00 86 1021.3
20260901135026 76 2 1.0 2.0 0.00 0.00 0.00 87 1021.4
20260901134545 76 54 1.0 2.0 0.00 0.00 0.00 88 1021.5
20260901134119 75 0 0.0 2.0 0.00 0.00 0.00 88 1021.4
20260901133524 75 10 0.0 2.0 0.00 0.00 0.00 89 1021.3
20260901133048 75 0 0.0 2.0 0.00 0.00 0.00 90 1021.2
20260901132526 74 352 0.0 2.0 0.00 0.00 0.00 90 1021.3
20260901132025 74 0 0.0 2.0 0.00 0.00 0.00 90 1021.3
20260901131546 73 0 0.0 2.0 0.00 0.00 0.00 90 1021.4
20260901131030 73 0 0.0 2.0 0.00 0.00 0.00 91 1021.4
20260901130524 73 69 0.0 2.0 0.00 0.00 0.00 91 1021.3
20260901130056 72 54 0.0 2.0 0.00 0.00 0.00 91 1021.3
20260901125525 72 0 1.0 2.0 0.00 0.00 0.00 91 1021.3
20260901125024 72 126 0.0 2.0 0.00 0.00 0.00 91 1021.3
20260901124549 71 0 0.0 1.0 0.00 0.00 0.00 91 1021.3
20260901124025 71 0 0.0 0.0 0.00 0.00 0.00 92 1021.3
20260901123525 71 0 0.0 0.0 0.00 0.00 0.00 91 1021.2
20260901123049 71 0 0.0 2.0 0.00 0.00 0.00 91 1021.1
20260901122525 70 0 0.0 2.0 0.00 0.00 0.00 92 1021.1
20260901122025 70 0 0.0 2.0 0.00 0.00 0.00 92 1021.0
20260901121547 70 129 0.0 3.0 0.00 0.00 0.00 91 1021.0
20260901121026 70 172 1.0 4.0 0.00 0.00 0.00 92 1021.0
20260901120524 70 106 2.0 4.0 0.00 0.00 0.00 92 1020.9
20260901120046 70 127 2.0 3.0 0.00 0.00 0.00 92 1020.9
20260901115527 69 115 1.0 2.0 0.00 0.00 0.00 91 1020.8
20260901115025 69 146 1.0 2.0 0.00 0.00 0.00 91 1020.7
20260901114622 69 135 0.0 2.0 0.00 0.00 0.00 91 1020.7
20260901114024 69 131 0.0 2.0 0.00 0.00 0.00 91 1020.5
20260901113528 69 150 0.0 2.0 0.00 0.00 0.00 91 1020.5
20260901113051 69 0 0.0 2.0 0.00 0.00 0.00 91 1020.5
20260901112523 69 150 1.0 2.0 0.00 0.00 0.00 91 1020.5
20260901112025 69 128 1.0 1.0 0.00 0.00 0.00 91 1020.4
20260901111551 69 103 1.0 1.0 0.00 0.00 0.00 91 1020.3
20260901111028 69 103 0.0 2.0 0.00 0.00 0.00 91 1020.1
20260901110526 69 103 0.0 2.0 0.00 0.00 0.00 91 1020.1
20260901110048 69 106 1.0 2.0 0.00 0.00 0.00 91 1020.0
20260901105524 69 150 0.0 2.0 0.00 0.00 0.00 91 1019.8
20260901105029 69 0 0.0 2.0 0.00 0.00 0.00 91 1019.9
20260901104545 69 175 0.0 2.0 0.00 0.00 0.00 91 1019.8
20260901104025 69 0 0.0 1.0 0.00 0.00 0.00 91 1019.8
20260901103525 69 0 0.0 0.0 0.00 0.00 0.00 91 1019.8
20260901103053 69 0 0.0 0.0 0.00 0.00 0.00 91 1019.8
20260901102523 69 0 0.0 0.0 0.00 0.00 0.00 91 1019.7
20260901102026 69 0 0.0 0.0 0.00 0.00 0.00 91 1019.7
20260901101550 69 0 0.0 0.0 0.00 0.00 0.00 91 1019.7
20260901101027 70 0 0.0 0.0 0.00 0.00 0.00 91 1019.7
20260901100526 70 0 0.0 0.0 0.00 0.00 0.00 91 1019.6
20260901100051 70 0 0.0 0.0 0.00 0.00 0.00 90 1019.7
20260901095525 70 0 0.0 0.0 0.00 0.00 0.00 90 1019.6
20260901095024 70 0 0.0 0.0 0.00 0.00 0.00 90 1019.6
20260901094547 70 0 0.0 0.0 0.00 0.00 0.00 90 1019.6
20260901094024 70 0 0.0 0.0 0.00 0.00 0.00 90 1019.7
20260901093524 70 0 0.0 1.0 0.00 0.00 0.00 90 1019.6
20260901093050 70 0 0.0 2.0 0.00 0.00 0.00 90 1019.7
20260901092523 70 0 0.0 2.0 0.00 0.00 0.00 90 1019.6
20260901092023 70 115 0.0 2.0 0.00 0.00 0.00 90 1019.5
20260901091549 70 0 0.0 2.0 0.00 0.00 0.00 90 1019.5
20260901091024 70 0 0.0 2.0 0.00 0.00 0.00 90 1019.5
20260901090525 70 0 0.0 0.0 0.00 0.00 0.00 90 1019.4
20260901090050 70 0 0.0 2.0 0.00 0.00 0.00 90 1019.4
20260901085530 70 0 0.0 2.0 0.00 0.00 0.00 90 1019.4
20260901085027 71 0 0.0 0.0 0.00 0.00 0.00 90 1019.4
20260901084550 71 0 0.0 2.0 0.00 0.00 0.00 90 1019.4
20260901084029 71 0 0.0 2.0 0.00 0.00 0.00 90 1019.3
20260901083523 71 0 0.0 2.0 0.00 0.00 0.00 90 1019.3
20260901083049 71 0 0.0 2.0 0.00 0.00 0.00 90 1019.3
20260901082523 71 0 0.0 2.0 0.00 0.00 0.00 90 1019.3
20260901082023 71 115 0.0 2.0 0.00 0.00 0.00 90 1019.4
20260901081548 71 0 0.0 2.0 0.00 0.00 0.00 90 1019.3
20260901081025 71 0 0.0 2.0 0.00 0.00 0.00 90 1019.3
20260901080525 71 115 0.0 2.0 0.00 0.00 0.00 90 1019.2
20260901080049 71 115 1.0 2.0 0.00 0.00 0.00 90 1019.1
20260901075525 71 127 1.0 2.0 0.00 0.00 0.00 90 1019.2
20260901075026 71 0 0.0 2.0 0.00 0.00 0.00 90 1019.1
20260901074555 71 154 0.0 2.0 0.00 0.00 0.00 90 1019.1
20260901074025 71 0 0.0 2.0 0.00 0.00 0.00 90 1019.0
20260901073527 71 154 0.0 2.0 0.00 0.00 0.00 90 1019.1
20260901073057 71 168 0.0 2.0 0.00 0.00 0.00 89 1019.1
20260901072526 71 121 1.0 2.0 0.00 0.00 0.00 89 1019.1
20260901072025 71 108 0.0 2.0 0.00 0.00 0.00 89 1019.1
20260901071548 71 0 0.0 2.0 0.00 0.00 0.00 89 1019.2
20260901071025 71 0 0.0 2.0 0.00 0.00 0.00 89 1019.2
20260901070526 71 0 0.0 1.0 0.00 0.00 0.00 89 1019.3
20260901065528 72 0 0.0 0.0 0.00 0.00 0.00 89 1019.3
20260901065025 72 0 0.0 0.0 0.00 0.00 0.00 89 1019.3
20260901064553 72 0 0.0 2.0 0.00 0.00 0.00 89 1019.4
20260901064028 72 0 0.0 2.0 0.00 0.00 0.00 89 1019.4
20260901063525 72 108 0.0 2.0 0.00 0.00 0.00 89 1019.5
20260901063053 72 108 0.0 2.0 0.00 0.00 0.00 89 1019.6
20260901062524 72 0 0.0 2.0 0.00 0.00 0.00 89 1019.5
20260901062028 72 0 0.0 0.0 0.00 0.00 0.00 89 1019.6
20260901061547 72 0 0.0 1.0 0.00 0.00 0.00 89 1019.6
20260901061029 72 0 0.0 1.0 0.00 0.00 0.00 89 1019.6
20260901060530 72 0 0.0 2.0 0.00 0.00 0.00 88 1019.5
20260901060048 72 0 0.0 2.0 0.00 0.00 0.00 89 1019.7
20260901055524 72 109 0.0 2.0 0.00 0.00 0.00 88 1019.6
20260901055028 72 0 0.0 2.0 0.00 0.00 0.00 89 1019.6
20260901054559 72 108 0.0 2.0 0.00 0.00 0.00 88 1019.6
20260901054027 72 0 0.0 2.0 0.00 0.00 0.00 88 1019.6
20260901053524 72 0 0.0 2.0 0.00 0.00 0.00 89 1019.6
20260901053054 72 0 0.0 2.0 0.00 0.00 0.00 89 1019.6
20260901052526 72 108 0.0 2.0 0.00 0.00 0.00 89 1019.6
20260901052024 72 106 1.0 2.0 0.00 0.00 0.00 89 1019.6
20260901051547 72 112 0.0 1.0 0.00 0.00 0.00 89 1019.5
20260901051026 73 0 0.0 0.0 0.00 0.00 0.00 88 1019.6
20260901050524 73 0 0.0 0.0 0.00 0.00 0.00 88 1019.6
20260901050052 73 0 0.0 0.0 0.00 0.00 0.00 88 1019.6
20260901045523 73 0 0.0 0.0 0.00 0.00 0.00 88 1019.6
20260901045025 73 0 0.0 0.0 0.00 0.00 0.00 88 1019.5
20260901044559 73 0 0.0 0.0 0.00 0.00 0.00 88 1019.6
20260901044024 73 0 0.0 0.0 0.00 0.00 0.00 88 1019.5
20260901043527 73 0 0.0 0.0 0.00 0.00 0.00 87 1019.4
20260901043049 73 0 0.0 0.0 0.00 0.00 0.00 87 1019.4
20260901042527 73 0 0.0 2.0 0.00 0.00 0.00 87 1019.3
20260901042025 74 0 0.0 2.0 0.00 0.00 0.00 86 1019.4
20260901041546 74 0 0.0 2.0 0.00 0.00 0.00 86 1019.4
20260901041120 74 0 0.0 2.0 0.00 0.00 0.00 86 1019.5
20260901041025 74 0 0.0 2.0 0.00 0.00 0.00 86 1019.5
20260901040526 74 112 1.0 1.0 0.00 0.00 0.00 86 1019.5